Location: Observatoire
(46.1952°N, 5.3391°E)
Time: 07:42:06
(UTC+01:00)

Explorer 7 - Pass Details

Date: 21 February 2026
Orbit: 430 x 541 km, 50.2° (Epoch: 9 March)

Event Time Altitude Azimuth Distance (km) Brightness Sun altitude
Rises 21:06:51 0° 284° (WNW) 2,548 11.4 -30.5°
Reaches altitude 10° 21:09:42 10° 261° (W) 1,690 10.0 -30.9°
Enters shadow 21:10:43 13° 246° (WSW) 1,499 9.5 -31.1°
Maximum altitude 21:11:58 15° 224° (SW) 1,413 - -31.3°
Drops below altitude 10° 21:14:16 10° 188° (S) 1,724 - -31.7°
Sets 21:17:13 0° 165° (SSE) 2,630 - -32.1°
